Flag for Germany Past Weather in Frankfurt an der Oder, Brandenburg, Germany — Yesterday and Last 2 Weeks

Now
87 °F

Sunny.


Feels Like: 86 °F
Forecast: 63 / 90 °F
Wind: 2 mph from Northeast

Location: Gorzow Wlkp

Current Time: Aug 27, 2016 at 5:28:32 PM

Latest Report: Aug 27, 2016 at 4:00 PM


Visibility: 19 mi

Pressure: 30.09 "Hg

Humidity: 37%

Dew Point: 58 °F

Location of Frankfurt an der OderLocation

Past Weather in Frankfurt an der Oder — Graph

°F

Frankfurt an der Oder Temperature Yesterday

Maximum temperature yesterday: 86 °F (at 3:00 PM)
Minimum temperature yesterday: 61 °F (at 6:00 AM)
Average temperature yesterday: 73 °F

High & Low Weather Summary for the Past Weeks

 TemperatureHumidityPressure
High87 °F (Aug 27, 3:00 PM)98% (Aug 17, 7:00 AM)30.35 "Hg (Aug 17, 7:00 AM)
Low48 °F (Aug 16, 6:00 AM)34% (Aug 27, 2:00 PM)29.80 "Hg (Aug 18, 9:00 AM)
Average65 °F72%30.09 "Hg
* Reported Aug 12 4:00 PM — Aug 27 4:00 PM, Frankfurt an der Oder, Weather by CustomWeather, © 2016

Note: Actual official high and low records may vary slightly from our data, if they occured in-between our weather recording intervals... More about our weather records

Advertising

Frankfurt an der Oder Weather History for the Previous 24 Hours

Scroll right to see more
 ConditionsComfort  
Time TempWeatherWind HumidityBarometerVisibility
4:00 PM
Sat, Aug 27
87 °FSunny.2 mph37%30.09 "Hg19 mi
3:00 PM87 °FSunny.1 mph37%30.09 "Hg19 mi
2:00 PM85 °FSunny.2 mph34%30.11 "Hg19 mi
1:00 PM82 °FSunny.1 mph44%30.11 "Hg19 mi
12:00 PM80 °FSunny.1 mph50%30.12 "Hg19 mi
11:00 AM76 °FSunny.1 mph55%30.12 "Hg19 mi
10:00 AM72 °FSunny.1 mph59%30.12 "Hg19 mi
9:00 AM69 °FSunny.1 mph65%30.12 "Hg19 mi
8:00 AM62 °FSunny.1 mph80%30.11 "Hg12 mi
7:00 AM61 °FSunny.1 mph86%30.10 "Hg12 mi
6:00 AM59 °FClear.1 mph89%30.10 "Hg9 mi
5:00 AM60 °FClear.1 mph85%30.09 "Hg12 mi
4:00 AM61 °FClear.1 mph84%30.09 "Hg16 mi
3:00 AM63 °FClear.1 mph82%30.08 "Hg16 mi
2:00 AM66 °FClear.1 mph76%30.07 "Hg19 mi
1:00 AM66 °FClear.1 mph75%30.07 "Hg19 mi
12:00 AM68 °FClear.1 mph68%30.08 "Hg19 mi
11:00 PM
Fri, Aug 26
72 °FClear.1 mph60%30.07 "Hg19 mi
10:00 PM75 °FPassing clouds.2 mph54%30.07 "Hg22 mi
9:00 PM76 °FPassing clouds.2 mph51%30.06 "Hg22 mi
8:00 PM78 °FPassing clouds.2 mph48%30.06 "Hg19 mi
7:00 PM82 °FPassing clouds.3 mph41%30.04 "Hg19 mi
6:00 PM84 °FPassing clouds.5 mph39%30.04 "Hg19 mi
5:00 PM85 °FPassing clouds.3 mph36%30.05 "Hg19 mi
Weather by CustomWeather, © 2016

See weather overviewHow to use our weather pages